Карточка аэропорта URRP

Внимание!
Информация на этой странице в стадии наполнения.
Если вы не увидели какой-то информации, или заметили неточность - пожалуйста сообщите нам!
Спасибо!
Команда RU-STAFF
Название аэропортаПлатов
Название аэропорта (англ.)Platov
Превышение282 ft. (86 m.)
Координаты47°29.634', 39°55.482'
Высота перехода3500 ft
Эшелон переходаFL50 (QNH >= 996); FL60 (QNH < 996)
Коды ответчика1001-1017
Зона ОрВДРостов-на-Дону РПИ (URRV)
Данные METARURRP 200930Z 12002MPS 080V170 9999 SCT/// 23/08 Q1018 R05/CLRD70 NOSIG RMK QFE758/1011
Проноз погоды (TAF)URRP 200756Z 2009/2109 08003G12MPS 9999 SCT020CB TEMPO 2009/2018 13003G12MPS PROB40 TEMPO 2100/2106 0300 FG SCT001 SCT020CB
NOTAMshow/hide NOTAM
AWOS   TABLE

Информация о ВПП

ВПП Длина ВПП (м.) Покрытие Курс ВПП Частота ILS
053900Цементобетон46111.5
233900Цементобетон226110.9

Диспетчерские позиции

Позывной Наименование органа УВД Частота
URRP_APPПлатов-подход128.2
URRP_DELПлатов-деливери127.1
URRP_GNDПлатов - руление119.0
URRP_R_APPПлатов - Круг121.2
URRP_TWRПлатов-Вышка119.7



Спутниковое изображение